Time,TemperatureF,DewpointF,PressureIn,WindDirection,WindDirectionDegrees,WindSpeedMPH,WindSpeedGustMPH,Humidity,HourlyPrecipIn,Conditions,Clouds,dailyrainin,SoftwareType,DateUTC
2013-01-02 00:00:00,36.0,31.0,29.14,East,90,26.0,-999.0,81,-99.99,,,-99.99,,2013-01-02 00:00:00,
2013-01-02 00:22:00,36.0,31.0,29.14,East,90,26.0,-999.0,81,-99.99,,,-99.99,,2013-01-02 00:22:00,
2013-01-02 00:32:00,36.0,31.0,29.14,East,90,26.0,-999.0,81,-99.99,,,-99.99,,2013-01-02 00:32:00,
2013-01-02 00:42:00,36.0,31.0,29.14,East,90,26.0,-999.0,81,-99.99,,,-99.99,,2013-01-02 00:42:00,
2013-01-02 00:52:00,36.0,31.0,29.14,East,90,26.0,-999.0,81,-99.99,,,-99.99,,2013-01-02 00:52:00,
2013-01-02 01:00:00,29.0,27.0,29.14,ENE,70,31.0,-999.0,92,-99.99,,,-99.99,,2013-01-02 01:00:00,
2013-01-02 01:22:00,29.0,27.0,29.14,ENE,70,31.0,-999.0,92,-99.99,,,-99.99,,2013-01-02 01:22:00,
2013-01-02 01:32:00,29.0,27.0,29.14,ENE,70,31.0,-999.0,92,-99.99,,,-99.99,,2013-01-02 01:32:00,
2013-01-02 01:42:00,29.0,27.0,29.14,ENE,70,31.0,-999.0,92,-99.99,,,-99.99,,2013-01-02 01:42:00,
2013-01-02 01:52:00,29.0,27.0,29.14,ENE,70,31.0,-999.0,92,-99.99,,,-99.99,,2013-01-02 01:52:00,
2013-01-02 02:00:00,29.0,27.0,29.14,ENE,70,28.0,-999.0,92,-99.99,,,-99.99,,2013-01-02 02:00:00,
2013-01-02 02:22:00,29.0,27.0,29.14,ENE,70,28.0,-999.0,92,-99.99,,,-99.99,,2013-01-02 02:22:00,
2013-01-02 02:32:00,29.0,27.0,29.14,ENE,70,28.0,-999.0,92,-99.99,,,-99.99,,2013-01-02 02:32:00,
2013-01-02 02:42:00,29.0,27.0,29.14,ENE,70,28.0,-999.0,92,-99.99,,,-99.99,,2013-01-02 02:42:00,
2013-01-02 02:52:00,29.0,27.0,29.14,ENE,70,28.0,-999.0,92,-99.99,,,-99.99,,2013-01-02 02:52:00,
2013-01-02 03:00:00,30.0,27.0,29.14,ENE,70,28.0,-999.0,88,-99.99,,,-99.99,,2013-01-02 03:00:00,
2013-01-02 03:22:00,30.0,27.0,29.14,ENE,70,28.0,-999.0,88,-99.99,,,-99.99,,2013-01-02 03:22:00,
2013-01-02 03:32:00,30.0,27.0,29.14,ENE,70,28.0,-999.0,88,-99.99,,,-99.99,,2013-01-02 03:32:00,
2013-01-02 03:42:00,30.0,27.0,29.14,ENE,70,28.0,-999.0,88,-99.99,,,-99.99,,2013-01-02 03:42:00,
2013-01-02 03:52:00,30.0,27.0,29.14,ENE,70,28.0,-999.0,88,-99.99,,,-99.99,,2013-01-02 03:52:00,
2013-01-02 04:00:00,30.0,28.0,29.16,ENE,60,25.0,-999.0,93,-99.99,,,-99.99,,2013-01-02 04:00:00,
2013-01-02 04:22:00,30.0,28.0,29.16,ENE,60,25.0,-999.0,93,-99.99,,,-99.99,,2013-01-02 04:22:00,
2013-01-02 04:32:00,30.0,28.0,29.16,ENE,60,25.0,-999.0,93,-99.99,,,-99.99,,2013-01-02 04:32:00,
2013-01-02 04:42:00,30.0,28.0,29.16,ENE,60,25.0,-999.0,93,-99.99,,,-99.99,,2013-01-02 04:42:00,
2013-01-02 04:52:00,30.0,28.0,29.16,ENE,60,25.0,-999.0,93,-99.99,,,-99.99,,2013-01-02 04:52:00,
2013-01-02 05:00:00,30.0,29.0,29.16,ENE,60,25.0,-999.0,95,-99.99,,,-99.99,,2013-01-02 05:00:00,
2013-01-02 05:22:00,30.0,29.0,29.16,ENE,60,25.0,-999.0,95,-99.99,,,-99.99,,2013-01-02 05:22:00,
2013-01-02 05:32:00,30.0,29.0,29.16,ENE,60,25.0,-999.0,95,-99.99,,,-99.99,,2013-01-02 05:32:00,
2013-01-02 05:42:00,30.0,29.0,29.16,ENE,60,25.0,-999.0,95,-99.99,,,-99.99,,2013-01-02 05:42:00,
2013-01-02 05:52:00,30.0,29.0,29.16,ENE,60,25.0,-999.0,95,-99.99,,,-99.99,,2013-01-02 05:52:00,
2013-01-02 06:00:00,30.0,29.0,29.16,ENE,60,24.0,-999.0,97,-99.99,,,-99.99,,2013-01-02 06:00:00,
2013-01-02 06:22:00,30.0,29.0,29.16,ENE,60,24.0,-999.0,97,-99.99,,,-99.99,,2013-01-02 06:22:00,
2013-01-02 06:32:00,30.0,29.0,29.16,ENE,60,24.0,-999.0,97,-99.99,,,-99.99,,2013-01-02 06:32:00,
2013-01-02 06:42:00,30.0,29.0,29.16,ENE,60,24.0,-999.0,97,-99.99,,,-99.99,,2013-01-02 06:42:00,
2013-01-02 06:52:00,30.0,29.0,29.16,ENE,60,24.0,-999.0,97,-99.99,,,-99.99,,2013-01-02 06:52:00,
2013-01-02 07:00:00,29.0,29.0,29.15,ENE,60,28.0,-999.0,98,-99.99,,,-99.99,,2013-01-02 07:00:00,
2013-01-02 07:22:00,29.0,29.0,29.15,ENE,60,28.0,-999.0,98,-99.99,,,-99.99,,2013-01-02 07:22:00,
2013-01-02 07:32:00,29.0,29.0,29.15,ENE,60,28.0,-999.0,98,-99.99,,,-99.99,,2013-01-02 07:32:00,
2013-01-02 07:42:00,29.0,29.0,29.15,ENE,60,28.0,-999.0,98,-99.99,,,-99.99,,2013-01-02 07:42:00,
2013-01-02 07:52:00,29.0,29.0,29.15,ENE,60,28.0,-999.0,98,-99.99,,,-99.99,,2013-01-02 07:52:00,
2013-01-02 08:00:00,30.0,30.0,29.15,ENE,60,20.0,-999.0,98,-99.99,,,-99.99,,2013-01-02 08:00:00,
2013-01-02 08:21:00,30.0,30.0,29.15,ENE,60,20.0,-999.0,98,-99.99,,,-99.99,,2013-01-02 08:21:00,
2013-01-02 08:32:00,30.0,30.0,29.15,ENE,60,20.0,-999.0,98,-99.99,,,-99.99,,2013-01-02 08:32:00,
2013-01-02 08:42:00,30.0,30.0,29.15,ENE,60,20.0,-999.0,98,-99.99,,,-99.99,,2013-01-02 08:42:00,
2013-01-02 08:52:00,30.0,30.0,29.15,ENE,60,20.0,-999.0,98,-99.99,,,-99.99,,2013-01-02 08:52:00,
2013-01-02 09:00:00,31.0,31.0,29.16,ENE,60,18.0,-999.0,99,-99.99,,,-99.99,,2013-01-02 09:00:00,
2013-01-02 09:22:00,31.0,31.0,29.16,ENE,60,18.0,-999.0,99,-99.99,,,-99.99,,2013-01-02 09:22:00,
2013-01-02 09:32:00,31.0,31.0,29.16,ENE,60,18.0,-999.0,99,-99.99,,,-99.99,,2013-01-02 09:32:00,
2013-01-02 09:42:00,31.0,31.0,29.16,ENE,60,18.0,-999.0,99,-99.99,,,-99.99,,2013-01-02 09:42:00,
2013-01-02 09:52:00,31.0,31.0,29.16,ENE,60,18.0,-999.0,99,-99.99,,,-99.99,,2013-01-02 09:52:00,
2013-01-02 10:00:00,31.0,30.0,29.17,ENE,60,26.0,-999.0,98,-99.99,,,-99.99,,2013-01-02 10:00:00,
2013-01-02 10:22:00,31.0,30.0,29.17,ENE,60,26.0,-999.0,98,-99.99,,,-99.99,,2013-01-02 10:22:00,
2013-01-02 10:32:00,31.0,30.0,29.17,ENE,60,26.0,-999.0,98,-99.99,,,-99.99,,2013-01-02 10:32:00,
2013-01-02 10:42:00,31.0,30.0,29.17,ENE,60,26.0,-999.0,98,-99.99,,,-99.99,,2013-01-02 10:42:00,
2013-01-02 10:52:00,31.0,30.0,29.17,ENE,60,26.0,-999.0,98,-99.99,,,-99.99,,2013-01-02 10:52:00,
2013-01-02 11:00:00,30.0,30.0,29.18,NE,50,23.0,-999.0,98,-99.99,,,-99.99,,2013-01-02 11:00:00,
2013-01-02 11:22:00,30.0,30.0,29.18,NE,50,23.0,-999.0,98,-99.99,,,-99.99,,2013-01-02 11:22:00,
2013-01-02 11:32:00,30.0,30.0,29.18,NE,50,23.0,-999.0,98,-99.99,,,-99.99,,2013-01-02 11:32:00,
2013-01-02 11:42:00,30.0,30.0,29.18,NE,50,23.0,-999.0,98,-99.99,,,-99.99,,2013-01-02 11:42:00,
2013-01-02 11:52:00,30.0,30.0,29.18,NE,50,23.0,-999.0,98,-99.99,,,-99.99,,2013-01-02 11:52:00,
2013-01-02 12:00:00,29.0,29.0,29.20,ENE,60,23.0,-999.0,99,-99.99,,,-99.99,,2013-01-02 12:00:00,
2013-01-02 12:22:00,29.0,29.0,29.20,ENE,60,23.0,-999.0,99,-99.99,,,-99.99,,2013-01-02 12:22:00,
2013-01-02 12:32:00,29.0,29.0,29.20,ENE,60,23.0,-999.0,99,-99.99,,,-99.99,,2013-01-02 12:32:00,
2013-01-02 12:42:00,29.0,29.0,29.20,ENE,60,23.0,-999.0,99,-99.99,,,-99.99,,2013-01-02 12:42:00,
2013-01-02 12:52:00,29.0,29.0,29.20,ENE,60,23.0,-999.0,99,-99.99,,,-99.99,,2013-01-02 12:52:00,
2013-01-02 13:00:00,29.0,29.0,29.22,NE,50,22.0,-999.0,98,-99.99,,,-99.99,,2013-01-02 13:00:00,
2013-01-02 13:22:00,29.0,29.0,29.22,NE,50,22.0,-999.0,98,-99.99,,,-99.99,,2013-01-02 13:22:00,
2013-01-02 13:32:00,29.0,29.0,29.22,NE,50,22.0,-999.0,98,-99.99,,,-99.99,,2013-01-02 13:32:00,
2013-01-02 13:42:00,29.0,29.0,29.22,NE,50,22.0,-999.0,98,-99.99,,,-99.99,,2013-01-02 13:42:00,
2013-01-02 13:52:00,29.0,29.0,29.22,NE,50,22.0,-999.0,98,-99.99,,,-99.99,,2013-01-02 13:52:00,
2013-01-02 14:00:00,27.0,27.0,29.23,NNW,330,5.0,-999.0,98,-99.99,,,-99.99,,2013-01-02 14:00:00,
2013-01-02 14:22:00,27.0,27.0,29.23,NNW,330,5.0,-999.0,98,-99.99,,,-99.99,,2013-01-02 14:22:00,
2013-01-02 14:32:00,27.0,27.0,29.23,NNW,330,5.0,-999.0,98,-99.99,,,-99.99,,2013-01-02 14:32:00,
2013-01-02 14:42:00,27.0,27.0,29.23,NNW,330,5.0,-999.0,98,-99.99,,,-99.99,,2013-01-02 14:42:00,
2013-01-02 14:53:00,27.0,27.0,29.23,NNW,330,5.0,-999.0,98,-99.99,,,-99.99,,2013-01-02 14:53:00,
2013-01-02 15:00:00,26.0,26.0,29.25,NNW,340,7.0,-999.0,99,-99.99,,,-99.99,,2013-01-02 15:00:00,
2013-01-02 15:22:00,26.0,26.0,29.25,NNW,340,7.0,-999.0,99,-99.99,,,-99.99,,2013-01-02 15:22:00,
2013-01-02 15:32:00,26.0,26.0,29.25,NNW,340,7.0,-999.0,99,-99.99,,,-99.99,,2013-01-02 15:32:00,
2013-01-02 15:42:00,26.0,26.0,29.25,NNW,340,7.0,-999.0,99,-99.99,,,-99.99,,2013-01-02 15:42:00,
2013-01-02 15:52:00,26.0,26.0,29.25,NNW,340,7.0,-999.0,99,-99.99,,,-99.99,,2013-01-02 15:52:00,
2013-01-02 16:00:00,27.0,27.0,29.26,North,350,9.0,-999.0,99,-99.99,,,-99.99,,2013-01-02 16:00:00,
2013-01-02 16:22:00,27.0,27.0,29.26,North,350,9.0,-999.0,99,-99.99,,,-99.99,,2013-01-02 16:22:00,
2013-01-02 16:32:00,27.0,27.0,29.26,North,350,9.0,-999.0,99,-99.99,,,-99.99,,2013-01-02 16:32:00,
2013-01-02 16:42:00,27.0,27.0,29.26,North,350,9.0,-999.0,99,-99.99,,,-99.99,,2013-01-02 16:42:00,
2013-01-02 16:52:00,27.0,27.0,29.26,North,350,9.0,-999.0,99,-99.99,,,-99.99,,2013-01-02 16:52:00,
2013-01-02 17:00:00,27.0,27.0,29.26,NNW,340,9.0,-999.0,99,-99.99,,,-99.99,,2013-01-02 17:00:00,
2013-01-02 17:22:00,27.0,27.0,29.26,NNW,340,9.0,-999.0,99,-99.99,,,-99.99,,2013-01-02 17:22:00,
2013-01-02 17:32:00,27.0,27.0,29.26,NNW,340,9.0,-999.0,99,-99.99,,,-99.99,,2013-01-02 17:32:00,
2013-01-02 17:42:00,27.0,27.0,29.26,NNW,340,9.0,-999.0,99,-99.99,,,-99.99,,2013-01-02 17:42:00,
2013-01-02 17:53:00,27.0,27.0,29.26,NNW,340,9.0,-999.0,99,-99.99,,,-99.99,,2013-01-02 17:53:00,
2013-01-02 18:00:00,28.0,27.0,29.26,North,350,14.0,-999.0,98,-99.99,,,-99.99,,2013-01-02 18:00:00,
2013-01-02 18:22:00,28.0,27.0,29.26,North,350,14.0,-999.0,98,-99.99,,,-99.99,,2013-01-02 18:22:00,
2013-01-02 18:32:00,28.0,27.0,29.26,North,350,14.0,-999.0,98,-99.99,,,-99.99,,2013-01-02 18:32:00,
2013-01-02 18:42:00,28.0,27.0,29.26,North,350,14.0,-999.0,98,-99.99,,,-99.99,,2013-01-02 18:42:00,
2013-01-02 18:52:00,28.0,27.0,29.26,North,350,14.0,-999.0,98,-99.99,,,-99.99,,2013-01-02 18:52:00,
2013-01-02 19:00:00,28.0,26.0,29.26,WNW,290,11.0,-999.0,92,-99.99,,,-99.99,,2013-01-02 19:00:00,
2013-01-02 19:22:00,28.0,26.0,29.26,WNW,290,11.0,-999.0,92,-99.99,,,-99.99,,2013-01-02 19:22:00,
2013-01-02 19:32:00,28.0,26.0,29.26,WNW,290,11.0,-999.0,92,-99.99,,,-99.99,,2013-01-02 19:32:00,
2013-01-02 19:42:00,28.0,26.0,29.26,WNW,290,11.0,-999.0,92,-99.99,,,-99.99,,2013-01-02 19:42:00,
2013-01-02 19:52:00,28.0,26.0,29.26,WNW,290,11.0,-999.0,92,-99.99,,,-99.99,,2013-01-02 19:52:00,
2013-01-02 20:00:00,29.0,24.0,29.26,NW,310,7.0,-999.0,82,-99.99,,,-99.99,,2013-01-02 20:00:00,
2013-01-02 20:22:00,29.0,24.0,29.26,NW,310,7.0,-999.0,82,-99.99,,,-99.99,,2013-01-02 20:22:00,
2013-01-02 20:32:00,29.0,24.0,29.26,NW,310,7.0,-999.0,82,-99.99,,,-99.99,,2013-01-02 20:32:00,
2013-01-02 20:42:00,29.0,24.0,29.26,NW,310,7.0,-999.0,82,-99.99,,,-99.99,,2013-01-02 20:42:00,
2013-01-02 20:52:00,29.0,24.0,29.26,NW,310,7.0,-999.0,82,-99.99,,,-99.99,,2013-01-02 20:52:00,
2013-01-02 21:00:00,29.0,23.0,29.27,WNW,300,9.0,-999.0,79,-99.99,,,-99.99,,2013-01-02 21:00:00,
2013-01-02 21:22:00,29.0,23.0,29.27,WNW,300,9.0,-999.0,79,-99.99,,,-99.99,,2013-01-02 21:22:00,
2013-01-02 21:32:00,29.0,23.0,29.27,WNW,300,9.0,-999.0,79,-99.99,,,-99.99,,2013-01-02 21:32:00,
2013-01-02 21:42:00,29.0,23.0,29.27,WNW,300,9.0,-999.0,79,-99.99,,,-99.99,,2013-01-02 21:42:00,
2013-01-02 21:52:00,29.0,23.0,29.27,WNW,300,9.0,-999.0,79,-99.99,,,-99.99,,2013-01-02 21:52:00,
2013-01-02 22:00:00,29.0,22.0,29.28,West,260,7.0,-999.0,75,-99.99,,,-99.99,,2013-01-02 22:00:00,
2013-01-02 22:22:00,29.0,22.0,29.28,West,260,7.0,-999.0,75,-99.99,,,-99.99,,2013-01-02 22:22:00,
2013-01-02 22:32:00,29.0,22.0,29.28,West,260,7.0,-999.0,75,-99.99,,,-99.99,,2013-01-02 22:32:00,
2013-01-02 22:42:00,29.0,22.0,29.28,West,260,7.0,-999.0,75,-99.99,,,-99.99,,2013-01-02 22:42:00,
2013-01-02 22:52:00,29.0,22.0,29.28,West,260,7.0,-999.0,75,-99.99,,,-99.99,,2013-01-02 22:52:00,
2013-01-02 23:00:00,29.0,24.0,29.28,West,280,11.0,-999.0,80,-99.99,,,-99.99,,2013-01-02 23:00:00,
2013-01-02 23:22:00,29.0,24.0,29.28,West,280,11.0,-999.0,80,-99.99,,,-99.99,,2013-01-02 23:22:00,
2013-01-02 23:32:00,29.0,24.0,29.28,West,280,11.0,-999.0,80,-99.99,,,-99.99,,2013-01-02 23:32:00,
2013-01-02 23:42:00,29.0,24.0,29.28,West,280,11.0,-999.0,80,-99.99,,,-99.99,,2013-01-02 23:42:00,
2013-01-02 23:52:00,29.0,24.0,29.28,West,280,11.0,-999.0,80,-99.99,,,-99.99,,2013-01-02 23:52:00,